Simultaneous Nadir Overpasses (SNOs) Predictions

Prediction of SNOs between NOAA-15 and METOP-C Satellite Orbit:

Table of predicted SNOs for the next 14.0 days since TLE Epoch: 2/1/2025
Index Date (NOAA-15) Time (NOAA-15) Lat,Lon (NOAA-15) SZA (NOAA-15 ) Date (METOP-C) Time (METOP-C) Lat,Lon (METOP-C) SZA (METOP-C ) Distance(km) Time Diff (sec)
1 02/07/2025 06:11:35 81.01, 124.71 97.68 02/07/2025 06:10:27 81.03, 124.64 97.66 2.10 68
2 02/07/2025 07:02:08 -81.03, -68.22 82.35 02/07/2025 07:01:07 -81.02, -68.16 82.37 1.25 61
3 02/07/2025 07:52:34 81.04, 98.98 97.64 02/07/2025 07:51:48 81.02, 99.14 97.62 3.31 46
4 02/07/2025 08:43:06 -81.02, -93.23 82.36 02/07/2025 08:42:28 -81.03, -93.30 82.37 2.09 38
5 02/07/2025 09:33:32 81.03, 73.98 97.63 02/07/2025 09:33:09 81.03, 74.01 97.63 0.73 23
6 02/07/2025 10:24:06 -81.04,-118.96 82.40 02/07/2025 10:23:50 -81.03,-118.80 82.41 3.30 16
7 02/07/2025 11:14:31 81.03, 48.62 97.60 02/07/2025 11:14:31 81.02, 48.51 97.58 2.07 0
8 02/07/2025 12:05:04 -81.03,-143.96 82.41 02/07/2025 12:05:11 -81.03,-143.93 82.40 0.73 7
9 02/07/2025 12:55:30 81.04, 23.25 97.57 02/07/2025 12:55:52 81.03, 23.38 97.59 2.29 22
10 02/07/2025 13:46:03 -81.04,-169.32 82.44 02/07/2025 13:46:33 -81.03,-169.43 82.45 2.05 30
11 02/07/2025 14:36:28 81.03, -1.75 97.56 02/07/2025 14:37:13 81.04, -1.76 97.59 1.71 45
12 02/07/2025 15:27:02 -81.04, 165.31 82.47 02/07/2025 15:27:54 -81.04, 165.44 82.44 2.28 52
13 02/07/2025 16:17:27 81.03, -27.12 97.53 02/07/2025 16:18:35 81.04, -27.26 97.55 2.43 68



Historial Predications of SNOs between NOAA-15 and METOP-C
